Weather History for KPRN - March, 2012

Change the Weather History Date:

Friday, March 30, 2012

  Actual Average Record
Temperature  
Mean Temperature 71 °F -  
Max Temperature 78 °F 75 °F 87 °F (1963)
Min Temperature 64 °F 49 °F 32 °F (1964)
Cooling Degree Days 6    
Growing Degree Days 21 (Base 50)    
Moisture  
Dew Point 65 °F    
Average Humidity 89    
Maximum Humidity 100    
Minimum Humidity 62    
Precipitation  
Precipitation 0.25 in - - ()
Sea Level Pressure  
Sea Level Pressure 29.94 in    
Wind  
Wind Speed 4 mph (South)    
Max Wind Speed 10 mph    
Max Gust Speed -    
Visibility 8 miles    
Events Fog , Rain , Thunderstorm    
Averages and records for this station are not official NWS values.
T = Trace of Precipitation, MM = Missing Value Source: NWS Daily Summary

Daily Weather History Graph

Daily Weather History Graph

Search for Another Location

Airport or City:

Trip Planner

Search our weather history database for the weather conditions in past years. The results will help you decide how hot, cold, wet, or windy it might be!

Date:

Astronomy

Mar. 30, 2012 Rise Set
Actual Time 6:36 AM CDT 7:05 PM CDT
Civil Twilight 6:12 AM CDT 7:29 PM CDT
Nautical Twilight 5:43 AM CDT 7:58 PM CDT
Astronomical Twilight 5:14 AM CDT 8:27 PM CDT
Moon 11:58 AM CDT (3/30) 1:24 AM CDT (3/30)
Length of Visible Light 13h 17m
Length of Day
12h 28m
Waxing Crescent, 49% of the Moon is Illuminated
Mar 30
Waxing Crescent
Mar 30
First Quarter
Apr 6
Full
Apr 13
Last Quarter
Apr 21
New

Hourly Weather History & Observations

Time (CDT) Temp. Dew Point Humidity Pressure Visibility Wind Dir Wind Speed Gust Speed Precip Events Conditions
12:15 AM 66.9 °F 63.0 °F 87% 29.99 in 10.0 mi SSW 10.4 mph - N/A   Scattered Clouds
12:24 AM 66.9 °F 63.0 °F 87% 29.98 in 10.0 mi SSW 9.2 mph - N/A   Mostly Cloudy
12:33 AM 66.9 °F 64.0 °F 90% 29.98 in 10.0 mi SSW 4.6 mph - N/A   Overcast
12:56 AM 66.9 °F 63.0 °F 87% 29.96 in 10.0 mi Calm Calm - N/A   Overcast
1:26 AM 64.9 °F 63.0 °F 93% 29.97 in 10.0 mi Calm Calm - N/A   Scattered Clouds
1:36 AM 66.0 °F 63.0 °F 90% 29.97 in 10.0 mi Calm Calm - N/A   Mostly Cloudy
1:56 AM 66.9 °F 64.0 °F 90% 29.95 in 10.0 mi SSW 4.6 mph - N/A   Overcast
2:56 AM 66.0 °F 64.0 °F 93% 29.93 in 10.0 mi SSE 5.8 mph - N/A   Overcast
3:41 AM 66.0 °F 64.9 °F 96% 29.95 in 9.0 mi South 3.5 mph - N/A   Overcast
3:56 AM 66.0 °F 64.0 °F 93% 29.93 in 9.0 mi Calm Calm - N/A   Mostly Cloudy
4:07 AM 66.0 °F 64.0 °F 93% 29.94 in 9.0 mi Calm Calm - N/A   Scattered Clouds
4:17 AM 64.9 °F 64.0 °F 97% 29.95 in 8.0 mi Calm Calm - N/A   Mostly Cloudy
4:56 AM 66.0 °F 64.9 °F 96% 29.95 in 7.0 mi Calm Calm - 0.00 in Rain Light Rain
5:20 AM 66.0 °F 64.9 °F 96% 29.96 in 6.0 mi SE 3.5 mph - 0.00 in   Overcast
5:34 AM 64.9 °F 64.0 °F 97% 29.96 in 7.0 mi Calm Calm - 0.00 in   Mostly Cloudy
5:46 AM 66.0 °F 64.0 °F 93% 29.97 in 7.0 mi Calm Calm - 0.00 in   Mostly Cloudy
5:56 AM 66.0 °F 64.0 °F 93% 29.96 in 7.0 mi ESE 3.5 mph - 0.00 in   Mostly Cloudy
6:25 AM 66.0 °F 64.9 °F 96% 29.98 in 1.8 mi SE 3.5 mph - N/A   Overcast
6:47 AM 66.0 °F 64.9 °F 96% 29.99 in 0.5 mi Calm Calm - N/A Fog Fog
6:56 AM 66.0 °F 64.9 °F 96% 29.98 in 0.2 mi Calm Calm - N/A Fog Fog
7:56 AM 66.0 °F 66.0 °F 100% 30.00 in 1.0 mi Variable 3.5 mph - N/A   Overcast
8:17 AM 66.9 °F 66.0 °F 97% 30.01 in 0.8 mi SE 3.5 mph - N/A   Overcast
8:26 AM 66.9 °F 66.0 °F 97% 30.01 in 1.8 mi SSE 3.5 mph - N/A   Overcast
8:29 AM 66.9 °F 66.0 °F 97% 30.01 in 3.0 mi South 4.6 mph - N/A   Overcast
8:56 AM 66.9 °F 66.0 °F 97% 30.00 in 10.0 mi South 3.5 mph - N/A   Overcast
9:48 AM 68.0 °F 66.0 °F 93% 30.00 in 10.0 mi SSE 5.8 mph - 0.00 in Rain Light Rain
9:56 AM 68.0 °F 66.0 °F 93% 29.99 in 10.0 mi Variable 3.5 mph - 0.00 in   Overcast
10:30 AM 73.0 °F 66.9 °F 81% 29.99 in 10.0 mi South 4.6 mph - N/A   Mostly Cloudy
10:49 AM 73.0 °F 66.0 °F 79% 29.98 in 10.0 mi South 8.1 mph - N/A   Mostly Cloudy
10:56 AM 73.0 °F 66.0 °F 79% 29.97 in 10.0 mi South 4.6 mph - N/A   Mostly Cloudy
11:19 AM 73.9 °F 64.9 °F 73% 29.97 in 10.0 mi South 6.9 mph - N/A   Scattered Clouds
11:56 AM 75.0 °F 64.9 °F 71% 29.94 in 10.0 mi Variable 5.8 mph - N/A   Partly Cloudy
12:26 PM 75.0 °F 64.9 °F 71% 29.94 in 10.0 mi SSE 6.9 mph - 0.00 in Thunderstorm Thunderstorm
12:56 PM 75.0 °F 68.0 °F 79% 29.93 in 10.0 mi Calm Calm - 0.00 in Rain , Thunderstorm Light Thunderstorms and Rain
1:08 PM 73.9 °F 68.0 °F 82% 29.93 in 10.0 mi SE 3.5 mph - 0.00 in   Clear
1:29 PM 73.9 °F 66.0 °F 76% 29.92 in 10.0 mi ESE 4.6 mph - 0.00 in Thunderstorm Thunderstorm
1:45 PM 77.0 °F 64.9 °F 66% 29.90 in 10.0 mi North 3.5 mph - 0.00 in   Clear
1:56 PM 77.0 °F 64.9 °F 66% 29.88 in 10.0 mi Calm Calm - 0.00 in Thunderstorm Thunderstorm
2:56 PM 78.1 °F 64.0 °F 62% 29.88 in 10.0 mi Variable 4.6 mph - 0.00 in Thunderstorm Thunderstorm
3:07 PM 77.0 °F 64.9 °F 66% 29.89 in 10.0 mi SW 8.1 mph - N/A Thunderstorm Thunderstorm
3:56 PM 70.0 °F 64.9 °F 84% 29.90 in 7.0 mi NW 4.6 mph - 0.01 in Rain , Thunderstorm Thunderstorms and Rain
4:03 PM 69.1 °F 64.9 °F 87% 29.91 in 3.0 mi Calm Calm - 0.04 in Rain , Thunderstorm Thunderstorms and Rain
4:10 PM 68.0 °F 66.0 °F 93% 29.92 in 0.8 mi SSW 8.1 mph - 0.14 in Rain , Thunderstorm Heavy Thunderstorms and Rain
4:16 PM 68.0 °F 64.9 °F 90% 29.91 in 2.0 mi SW 5.8 mph - 0.17 in Rain , Thunderstorm Thunderstorms and Rain
4:25 PM 68.0 °F 64.9 °F 90% 29.91 in 8.0 mi SW 4.6 mph - 0.17 in Rain , Thunderstorm Light Thunderstorms and Rain
4:34 PM 68.0 °F 66.0 °F 93% 29.90 in 10.0 mi South 3.5 mph - 0.17 in Rain , Thunderstorm Light Thunderstorms and Rain
4:45 PM 69.1 °F 64.9 °F 87% 29.89 in 10.0 mi SSW 5.8 mph - 0.17 in   Clear
4:56 PM 69.1 °F 64.9 °F 87% 29.88 in 10.0 mi Calm Calm - 0.17 in   Clear
5:56 PM 68.0 °F 64.9 °F 90% 29.88 in 10.0 mi SSE 4.6 mph - N/A   Clear
6:25 PM 66.9 °F 64.9 °F 93% 29.90 in 10.0 mi SSE 6.9 mph - N/A Thunderstorm Clear
6:40 PM 66.9 °F 64.9 °F 93% 29.90 in 10.0 mi SSE 3.5 mph - N/A   Clear
6:56 PM 66.9 °F 64.9 °F 93% 29.89 in 10.0 mi South 3.5 mph - N/A   Clear
7:30 PM 66.9 °F 64.9 °F 93% 29.90 in 10.0 mi SSE 3.5 mph - N/A   Scattered Clouds
7:56 PM 66.9 °F 66.0 °F 97% 29.90 in 10.0 mi South 4.6 mph - 0.00 in   Partly Cloudy
8:56 PM 66.9 °F 64.0 °F 90% 29.91 in 10.0 mi South 5.8 mph - N/A   Clear
9:56 PM 66.0 °F 64.0 °F 93% 29.90 in 10.0 mi South 6.9 mph - N/A   Clear
10:56 PM 66.9 °F 64.9 °F 93% 29.90 in 10.0 mi South 6.9 mph - 0.02 in Rain Light Rain
11:03 PM 66.9 °F 64.9 °F 93% 29.90 in 9.0 mi South 8.1 mph - 0.01 in Rain Rain
11:29 PM 66.9 °F 66.0 °F 97% 29.90 in 9.0 mi SW 4.6 mph - 0.04 in Rain Light Rain
11:43 PM 66.9 °F 66.0 °F 97% 29.90 in 10.0 mi SSW 5.8 mph - 0.05 in Rain Light Rain
11:56 PM 66.9 °F 66.0 °F 97% 29.89 in 10.0 mi Calm Calm - 0.05 in Rain Light Rain